Regional Weather Roundup
Issued by NWS

Home | Current Version | Previous Version | Text Only | Print | Product List | Glossary On
Versions: 1 2 3 4 5 6 7 8 9 10 11 12 13 14 15 16 17 18 19 20 21 22 23 24 25 26 27 28 29 30 31 32 33 34 35 36 37 38 39 40 41 42 43 44 45 46 47 48 49 50
000
ASUS43 KOAX 280210
RWRNE

WEATHER ROUNDUP FOR NEBRASKA
NATIONAL WEATHER SERVICE OMAHA NE
900 PM CDT TUE SEP 27 2016

NOTES: SATELLITE DATA IS BEING USED TO AUGMENT CLOUD COVER ABOVE
       12000 FEET.
       "FAIR" INDICATES FEW OR NO CLOUDS BELOW 12,000 FEET WITH NO
       SIGNIFICANT WEATHER AND/OR OBSTRUCTIONS TO VISIBILITY.

  * THESE STATIONS DO NOT REPORT WEATHER SUCH AS RAIN...SNOW OR FOG.

NEZ001>004-019>022-054>056-280300-
NEBRASKA PANHANDLE

CITY           SKY/WX    TMP DP  RH WIND       PRES   REMARKS
SCOTTSBLUFF    CLEAR     64  42  44 NE9       30.07R
ALLIANCE       CLEAR     62  38  40 N8        30.06R
CHADRON        CLEAR     65  42  43 CALM      30.03R
KIMBALL        CLEAR     64  39  40 CALM      30.14R
SIDNEY         CLEAR     59  34  39 CALM      30.10R
$$

NEZ057>060-069>072-079>082-280300-
SOUTHWEST NEBRASKA

CITY           SKY/WX    TMP DP  RH WIND       PRES   REMARKS
NORTH PLATTE   CLEAR     65  42  43 CALM      29.97R
IMPERIAL       CLEAR     66  41  40 NW3       30.02R
LEXINGTON      CLEAR     58  48  69 N6        29.95R
MCCOOK         CLEAR     64  44  48 W7        29.96R
OGALLALA       CLEAR     63  38  39 W5        30.01S
$$

NEZ005>010-023>029-035>040-094-280300-
NORTH CENTRAL NEBRASKA

CITY           SKY/WX    TMP DP  RH WIND       PRES   REMARKS
VALENTINE      CLEAR     60  40  47 NW5       29.98R
AINSWORTH      CLEAR     60  46  60 N7        29.98R
BROKEN BOW     CLEAR     61  43  51 N8        29.95R
O`NEILL        CLEAR     63  44  50 N7        29.94R
ORD            CLEAR     62  41  46 NW5       29.92R
THEDFORD       CLEAR     64  44  48 CALM      29.99R
$$

NEZ041-046>049-061>064-073>077-083>087-280300-
SOUTH CENTRAL NEBRASKA

CITY           SKY/WX    TMP DP  RH WIND       PRES   REMARKS
GRAND ISLAND   CLEAR     65  48  54 N7        29.91R
AURORA         CLEAR     64  49  58 CALM      29.90R
HASTINGS       CLEAR     65  49  56 W3        29.92R
HEBRON         CLEAR     62  52  68 CALM      29.88S
HOLDREGE       CLEAR     62  48  60 CALM      29.93R
KEARNEY *      CLEAR     70  46  43 NW5       29.92R
YORK           CLEAR     59  52  77 S3        29.89R
$$

NEZ011>018-030>034-042>045-280300-
NORTHEAST NEBRASKA

CITY           SKY/WX    TMP DP  RH WIND       PRES   REMARKS
NORFOLK        CLEAR     57  47  69 W3        29.90R
ALBION         CLEAR     62  46  55 N6        29.92R
BLAIR          CLEAR     65  46  49 N5        29.87R
FREMONT        CLEAR     60  52  73 CALM      29.88R
TEKAMAH        CLEAR     55  50  83 NW6       29.86R
WAYNE          CLEAR     53  48  86 S3        29.89R
$$

NEZ050>053-065>068-078-088>093-280300-
SOUTHEAST NEBRASKA

CITY           SKY/WX    TMP DP  RH WIND       PRES   REMARKS
LINCOLN        CLEAR     63  52  67 CALM      29.88R
OMAHA EPPLEY   CLEAR     63  52  67 W3        29.86R
BEATRICE       CLEAR     64  53  66 CALM      29.88R
FALLS CITY     CLEAR     65  51  60 S7        29.85F HAZE
NEBRASKA CITY  CLEAR     65  38  36 CALM      29.87R
PLATTSMOUTH    CLEAR     67  39  35 W3        29.86S
$$

NEZ044-045-051>053-067-280300-
OMAHA AREA

CITY           SKY/WX    TMP DP  RH WIND       PRES   REMARKS
OMAHA EPPLEY   CLEAR     63  52  67 W3        29.86R
BLAIR          CLEAR     65  46  49 N5        29.87R
FREMONT        CLEAR     60  52  73 CALM      29.88R
MILLARD        CLEAR     61  52  73 CALM      29.86R
OFFUTT AFB     CLEAR     57  53  88 NE2       29.85R
PLATTSMOUTH    CLEAR     67  39  35 W3        29.86S
WAHOO          FAIR      61  49  64 NW3       29.88R
$$




USA.gov is the U.S. government's official web portal to all federal, state and local government web resources and services.